Location: Unspecified
(0.0000°N, 0.0000°E)
Time: 10:25:04
(UTC+00:00)

Amsat-Oscar-8 - Pass Details

Date: 09 June 2023
Orbit: 890 x 901 km, 99.2° (Epoch: 21 September)

Event Time Altitude Azimuth Distance (km) Brightness Sun altitude
Rises 02:58:07 0° 17° (NNE) 3,495 12.4 -40.9°
Reaches altitude 10° 03:00:31 10° 20° (NNE) 2,559 11.6 -40.4°
Enters shadow 03:02:30 23° 24° (NNE) 1,818 10.8 -39.9°
